C/2018 KJ3 ( Lemmon )

Japanese version
Home page
Updated on August 14, 2018

---------------------------------------------------------------------

* Profile

Discovery Date May 17, 2018
Magnitude 19.9 mag
Discoverer H. Groeller and G. J. Leonard (Mount Lemmon Survey)

* Orbital Elements

Epoch 2019 Aug. 25.0 TT = JDT 2458720.5
T 2019 Sept.  9.52550 TT                                MPCW
q   3.6281760            (2000.0)            P               Q
z  +0.0012347      Peri.  217.63389     -0.42220723     -0.59318585
 +/-0.0000587      Node    91.59586     -0.57109677     +0.76129693
e   0.9955203      Incl.  136.70634     -0.70398121     -0.26183492
From 130 observations 2018 May 17-Aug. 7, mean residual 0".4.

* Finding Charts

* Magnitudes Graph

        m1 = 8.5 + 5 log d + 10.0 log r

---------------------------------------------------------------------

The orbital elements are published on M.P.E.C. 2018-P84.
The charts are made with StellaNavigator Ver.10 (AstroArts).
The magnitudes graphs are made with Comet for Windows.

---------------------------------------------------------------------

Copyright(C) Seiichi Yoshida (comet@aerith.net). All rights reserved.